sat.trackr.live / text

‹ back to catalog

YAOGAN-35 05C

NORAD 53763 · 2022-109D

PAYLOAD ACTIVE UNKNOWN

§ Identity

Operator
Country
PRC
Launch date
2022-09-06
Launch site
XICLF
Launch vehicle
Mass (kg)
RCS (m²)

External: N2YO · Heavens-Above · Gunter

§ Orbital elements

Epoch: 2026-05-25T03:57:40.741632Z

Period
94.54 min
Inclination
34.9898°
Eccentricity
0.0001835
Mean motion
15.23150850 rev/d
Perigee alt
495.1 km
Apogee alt
497.6 km
Semi-major
6,874.5 km
B*
2.2150e-4
RAAN
141.8657°
Arg perigee
44.4351°
Mean anomaly
315.6510°
Rev number
20,686

§ Raw data

YAOGAN-35 05C1 53763U 22109D   26145.16505488  .00005327  00000+0  22150-3 0  99922 53763  34.9898 141.8657 0001835  44.4351 315.6510 15.23150850206860

JSON: /api/v1/satellites/53763 · /tle

For live sub-satellite position, see the globe view (requires WebGL).

§ Visibility from observer

Set your observer location to see the next 7 days of passes ≥ 10°. The values pass through the URL so the page stays shareable.

No JS? Fill the form by hand. The geolocation button needs JavaScript.